Battle Creek, MI

7:45 PM EDT on September 22, 2017 (GMT -0400)
Kellogg

Weather History for KBTL - November, 2013

Change the Weather History Date:

Thursday, November 21, 2013

  Actual Average Record
Temperature  
Mean Temperature 45 °F 37 °F  
Max Temperature 49 °F 45 °F 59 °F (2010)
Min Temperature 40 °F 29 °F 11 °F (2014)
Degree Days  
Heating Degree Days 20 28  
Month to date heating degree days 485 501  
Since 1 July heating degree days 1055 1163  
Cooling Degree Days 0 0  
Month to date cooling degree days 0 0  
Year to date cooling degree days 689 578  
Moisture  
Dew Point 40 °F    
Average Humidity 79    
Maximum Humidity 92    
Minimum Humidity 65    
Precipitation  
Precipitation 0.13 in 0.09 in 1.23 in (2007)
Month to date precipitation 1.89 2.05  
Year to date precipitation 33.79 30.38  
Sea Level Pressure  
Sea Level Pressure 30.20 in    
Wind  
Wind Speed 8 mph (South)    
Max Wind Speed 16 mph    
Max Gust Speed 21 mph    
Visibility 8 miles    
Events Rain    
T = Trace of Precipitation, MM = Missing Value Source: NWS Daily Summary

Daily Weather History Graph

Daily Weather History Graph

Search for Another Location

Airport or City:

Trip Planner

Search our weather history database for the weather conditions in past years. The results will help you decide how hot, cold, wet, or windy it might be!

Date:

Astronomy

Nov. 21, 2013 Rise Set
Actual Time 7:39 AM EST 5:14 PM EST
Civil Twilight 7:08 AM EST 5:44 PM EST
Nautical Twilight 6:34 AM EST 6:19 PM EST
Astronomical Twilight 6:00 AM EST 6:52 PM EST
Moon 8:51 PM EST (11/21) 10:44 AM EST (11/21)
Length of Visible Light 10h 36m
Length of Day
9h 34m
Waning Gibbous, 85% of the Moon is Illuminated
Nov 21
Waning Gibbous
Nov 25
Last Quarter
Dec 2
New
Dec 9
First Quarter
Dec 17
Full

Hourly Weather History & Observations

Time (EST) Temp. Windchill Dew Point Humidity Pressure Visibility Wind Dir Wind Speed Gust Speed Precip Events Conditions
12:53 AM 39.9 °F - 33.1 °F 77% 30.25 in 10.0 mi Calm Calm - 0.00 in Rain Light Rain
1:53 AM 39.9 °F 35.8 °F 33.1 °F 77% 30.25 in 10.0 mi SE 5.8 mph - 0.00 in Rain Light Rain
2:53 AM 39.9 °F 35.1 °F 34.0 °F 79% 30.25 in 10.0 mi SE 6.9 mph - 0.00 in Rain Light Rain
3:53 AM 39.9 °F 34.5 °F 34.0 °F 79% 30.22 in 10.0 mi SE 8.1 mph - 0.00 in   Overcast
4:53 AM 41.0 °F 36.4 °F 34.0 °F 76% 30.21 in 10.0 mi SSE 6.9 mph - N/A   Overcast
5:53 AM 42.1 °F 36.1 °F 34.0 °F 73% 30.20 in 10.0 mi SSE 10.4 mph - N/A   Overcast
6:53 AM 43.0 °F 36.0 °F 34.0 °F 71% 30.20 in 10.0 mi South 13.8 mph - N/A   Overcast
7:53 AM 44.1 °F 38.1 °F 34.0 °F 68% 30.21 in 10.0 mi South 11.5 mph - N/A   Overcast
8:53 AM 44.1 °F 38.1 °F 35.1 °F 71% 30.22 in 10.0 mi South 11.5 mph - N/A   Overcast
9:53 AM 46.0 °F 39.9 °F 36.0 °F 68% 30.23 in 10.0 mi South 13.8 mph - N/A   Overcast
10:53 AM 46.9 °F - 39.0 °F 74% 30.24 in 10.0 mi South 15.0 mph - N/A   Overcast
11:53 AM 48.0 °F - 39.9 °F 74% 30.23 in 10.0 mi South 12.7 mph - N/A   Overcast
12:53 PM 48.0 °F - 39.9 °F 74% 30.21 in 10.0 mi South 12.7 mph - N/A   Overcast
1:51 PM 48.2 °F - 41.0 °F 76% 30.18 in 10.0 mi SSW 12.7 mph - N/A   Overcast
1:53 PM 48.9 °F - 41.0 °F 74% 30.19 in 10.0 mi SSW 12.7 mph - N/A   Overcast
2:53 PM 48.0 °F - 41.0 °F 77% 30.18 in 10.0 mi SSW 10.4 mph - N/A   Overcast
3:00 PM 48.2 °F - 41.0 °F 76% 30.17 in 10.0 mi SSW 11.5 mph - N/A   Overcast
3:30 PM 48.2 °F - 41.0 °F 76% 30.19 in 10.0 mi SSW 11.5 mph - N/A   Overcast
3:53 PM 46.9 °F - 41.0 °F 80% 30.21 in 10.0 mi SSW 9.2 mph - N/A   Overcast
4:24 PM 46.4 °F 41.9 °F 42.8 °F 87% 30.19 in 7.0 mi South 9.2 mph - 0.00 in Rain Light Rain
4:44 PM 46.4 °F 42.9 °F 42.8 °F 87% 30.18 in 7.0 mi South 6.9 mph - 0.00 in Rain Light Rain
4:53 PM 46.0 °F 43.1 °F 43.0 °F 89% 30.20 in 7.0 mi South 5.8 mph - 0.00 in   Overcast
5:25 PM 44.6 °F 41.4 °F 42.8 °F 93% 30.18 in 6.0 mi South 5.8 mph - N/A   Overcast
5:53 PM 45.0 °F 42.6 °F 43.0 °F 93% 30.20 in 6.0 mi South 4.6 mph - N/A   Overcast
6:53 PM 45.0 °F 41.8 °F 43.0 °F 93% 30.20 in 4.0 mi South 5.8 mph - 0.01 in Rain Light Rain
7:53 PM 45.0 °F 41.8 °F 43.0 °F 93% 30.20 in 5.0 mi South 5.8 mph - 0.04 in Rain Light Rain
8:53 PM 45.0 °F 43.5 °F 43.0 °F 93% 30.19 in 5.0 mi South 3.5 mph - 0.03 in Rain Light Rain
9:53 PM 45.0 °F 43.5 °F 43.0 °F 93% 30.19 in 4.0 mi South 3.5 mph - 0.01 in Rain Light Rain
10:45 PM 44.6 °F - 42.8 °F 93% 30.17 in 2.5 mi Calm Calm - 0.02 in Rain Light Rain
10:53 PM 45.0 °F - 43.0 °F 93% 30.19 in 2.5 mi Calm Calm - 0.02 in Rain Light Rain
11:37 PM 44.6 °F - 44.6 °F 100% 30.17 in 3.0 mi Calm Calm - 0.02 in Rain Light Rain
11:53 PM 45.0 °F - 44.1 °F 97% 30.18 in 3.0 mi Calm Calm - 0.02 in   Overcast